Location: Newark
(13.8117°N, 3.6025°W)
Time: 06:24:29
(UTC+00:00)

Vanguard 2 - Pass Details

Date: 03 September 2019
Orbit: 554 x 2937 km, 32.9° (Epoch: 13 September)

Event Time Altitude Azimuth Distance (km) Brightness Sun altitude
Rises 06:23:18 0° 235° (SW) 4,295 10.8 4.1°
Reaches altitude 10° 06:26:49 10° 234° (SW) 2,956 10.0 4.9°
Maximum altitude 06:33:29 78° 149° (SSE) 790 7.8 6.5°
Drops below altitude 10° 06:37:56 10° 62° (ENE) 1,992 11.2 7.6°
Sets 06:39:54 0° 61° (ENE) 2,797 11.8 8.1°
